Hourly Weather Dziadkowice

Today, 9 May, Sunday

Time Temperature Precipitation Wind Pressure Humidity
00:00 +3°C° 0 mm 3 mps 748 mmHg 81%
01:00 +3°C° 0 mm 3 mps 748 mmHg 82%
02:00 +3°C° 0 mm 3 mps 747 mmHg 82%
03:00 +3°C° 0 mm 4 mps 747 mmHg 81%
04:00 +3°C° 0 mm 4 mps 747 mmHg 80%
05:00 +4°C° 0 mm 4 mps 747 mmHg 75%
06:00 +6°C° 0 mm 5 mps 747 mmHg 71%
07:00 +8°C° 0 mm 6 mps 747 mmHg 66%
08:00 +10°C° 0 mm 6 mps 746 mmHg 62%
09:00 +11°C° 0 mm 6 mps 746 mmHg 58%
10:00 +14°C° 0 mm 7 mps 746 mmHg 55%
11:00 +15°C° 0 mm 6 mps 746 mmHg 53%
12:00 +17°C° 0 mm 6 mps 746 mmHg 52%
13:00 +19°C° 0 mm 6 mps 746 mmHg 51%
14:00 +19°C° 0 mm 6 mps 745 mmHg 54%
15:00 +20°C° 0 mm 6 mps 745 mmHg 57%
16:00 +20°C° 0 mm 5 mps 745 mmHg 59%
17:00 +17°C° 0 mm 5 mps 745 mmHg 64%
18:00 +15°C° 0 mm 4 mps 745 mmHg 69%
19:00 +14°C° 0 mm 4 mps 745 mmHg 73%
20:00 +13°C° 0 mm 4 mps 745 mmHg 72%
21:00 +12°C° 0 mm 4 mps 745 mmHg 72%
22:00 +11°C° 0 mm 4 mps 745 mmHg 71%
23:00 +11°C° 0 mm 4 mps 745 mmHg 74%

Tomorrow, 10 May, Monday

Time Temperature Precipitation Wind Pressure Humidity
00:00 +10°C° 0 mm 4 mps 745 mmHg 77%
01:00 +8°C° 0 mm 4 mps 745 mmHg 80%
02:00 +8°C° 0 mm 4 mps 744 mmHg 80%
03:00 +8°C° 0 mm 4 mps 744 mmHg 81%
04:00 +8°C° 0 mm 4 mps 744 mmHg 82%
05:00 +10°C° 0 mm 4 mps 744 mmHg 77%
06:00 +12°C° 0 mm 5 mps 744 mmHg 73%
07:00 +13°C° 0 mm 5 mps 744 mmHg 69%
08:00 +15°C° 0 mm 5 mps 744 mmHg 64%
09:00 +17°C° 0 mm 6 mps 744 mmHg 59%
10:00 +20°C° 0 mm 6 mps 744 mmHg 55%
11:00 +21°C° 0 mm 6 mps 744 mmHg 52%
12:00 +22°C° 0 mm 6 mps 743 mmHg 50%
13:00 +23°C° 0 mm 6 mps 743 mmHg 47%
14:00 +23°C° 0 mm 6 mps 743 mmHg 50%
15:00 +23°C° 0 mm 5 mps 743 mmHg 53%
16:00 +23°C° 0 mm 5 mps 743 mmHg 56%
17:00 +21°C° 0 mm 4 mps 743 mmHg 63%
18:00 +19°C° 0 mm 4 mps 744 mmHg 70%
19:00 +18°C° 0 mm 3 mps 744 mmHg 76%
20:00 +17°C° 0 mm 3 mps 744 mmHg 79%
21:00 +16°C° 0 mm 3 mps 744 mmHg 81%
22:00 +14°C° 0 mm 3 mps 744 mmHg 83%
23:00 +14°C° 0 mm 3 mps 744 mmHg 84%

Day after tomorrow, 11 May, Tuesday

Time Temperature Precipitation Wind Pressure Humidity
00:00 +13°C° 0 mm 4 mps 743 mmHg 86%
01:00 +13°C° 0 mm 4 mps 743 mmHg 87%
02:00 +13°C° 0 mm 4 mps 743 mmHg 86%
03:00 +12°C° 0 mm 4 mps 742 mmHg 85%
04:00 +12°C° 0 mm 5 mps 742 mmHg 83%
05:00 +13°C° 0 mm 5 mps 742 mmHg 81%
06:00 +15°C° 0 mm 6 mps 742 mmHg 78%
07:00 +16°C° 0 mm 6 mps 742 mmHg 75%
08:00 +19°C° 0 mm 6 mps 742 mmHg 70%
09:00 +21°C° 0 mm 6 mps 741 mmHg 64%
10:00 +23°C° 0 mm 7 mps 741 mmHg 59%
11:00 +24°C° 0 mm 7 mps 741 mmHg 56%
12:00 +26°C° 0 mm 7 mps 741 mmHg 54%
13:00 +27°C° 0 mm 7 mps 741 mmHg 51%
14:00 +26°C° 0 mm 7 mps 741 mmHg 54%
15:00 +26°C° 0 mm 7 mps 741 mmHg 57%
16:00 +26°C° 0 mm 7 mps 740 mmHg 60%
17:00 +23°C° 0 mm 7 mps 740 mmHg 64%
18:00 +22°C° 0 mm 6 mps 740 mmHg 68%
19:00 +20°C° 0 mm 6 mps 740 mmHg 72%
20:00 +19°C° 0 mm 6 mps 740 mmHg 73%
21:00 +17°C° 0 mm 6 mps 740 mmHg 73%
22:00 +16°C° 0 mm 6 mps 740 mmHg 74%
23:00 +15°C° 0 mm 6 mps 740 mmHg 74%

12 May, Wednesday

Time Temperature Precipitation Wind Pressure Humidity
00:00 +14°C° 0 mm 5 mps 740 mmHg 75%
01:00 +13°C° 0 mm 5 mps 740 mmHg 75%
02:00 +12°C° 0 mm 5 mps 740 mmHg 75%
03:00 +12°C° 0 mm 5 mps 739 mmHg 74%
04:00 +10°C° 0 mm 5 mps 739 mmHg 73%
05:00 +12°C° 0 mm 5 mps 739 mmHg 72%
06:00 +13°C° 0 mm 6 mps 739 mmHg 70%
07:00 +13°C° 0 mm 6 mps 739 mmHg 68%
08:00 +15°C° 0 mm 6 mps 739 mmHg 66%
09:00 +17°C° 0 mm 7 mps 739 mmHg 63%
10:00 +20°C° 0 mm 7 mps 739 mmHg 61%
11:00 +21°C° 0 mm 7 mps 739 mmHg 58%
12:00 +22°C° 0 mm 7 mps 738 mmHg 55%
13:00 +23°C° 0 mm 7 mps 738 mmHg 52%
14:00 +23°C° 0 mm 7 mps 738 mmHg 55%
15:00 +23°C° 0 mm 7 mps 738 mmHg 57%
16:00 +22°C° 0 mm 7 mps 738 mmHg 60%
17:00 +20°C° 0 mm 7 mps 738 mmHg 63%
18:00 +17°C° 0 mm 7 mps 738 mmHg 66%
19:00 +16°C° 0 mm 6 mps 738 mmHg 69%
20:00 +15°C° 0 mm 6 mps 738 mmHg 70%
21:00 +14°C° 0 mm 6 mps 738 mmHg 72%
22:00 +13°C° 0 mm 6 mps 738 mmHg 73%
23:00 +12°C° 0 mm 5 mps 738 mmHg 76%

13 May, Thursday

Time Temperature Precipitation Wind Pressure Humidity
00:00 +10°C° 0 mm 5 mps 738 mmHg 80%
01:00 +10°C° 0 mm 4 mps 738 mmHg 83%
02:00 +8°C° 0 mm 4 mps 738 mmHg 84%
03:00 +8°C° 0 mm 4 mps 738 mmHg 84%
04:00 +7°C° 0 mm 5 mps 738 mmHg 85%
05:00 +8°C° 0 mm 5 mps 738 mmHg 81%
06:00 +9°C° 0 mm 5 mps 738 mmHg 77%
07:00 +10°C° 0 mm 6 mps 738 mmHg 73%
08:00 +13°C° 0 mm 6 mps 738 mmHg 68%
09:00 +14°C° 0 mm 6 mps 738 mmHg 63%
10:00 +15°C° 0 mm 6 mps 738 mmHg 58%
11:00 +15°C° 0 mm 5 mps 737 mmHg 58%
12:00 +15°C° 0 mm 5 mps 737 mmHg 58%
13:00 +17°C° 0 mm 4 mps 737 mmHg 57%
14:00 +15°C° 0 mm 5 mps 737 mmHg 60%
15:00 +15°C° 0 mm 5 mps 737 mmHg 62%
16:00 +14°C° 0 mm 5 mps 737 mmHg 65%
17:00 +13°C° 0 mm 4 mps 737 mmHg 69%
18:00 +13°C° 0 mm 3 mps 737 mmHg 72%
19:00 +13°C° 0 mm 2 mps 737 mmHg 76%
20:00 +12°C° 0 mm 2 mps 737 mmHg 77%
21:00 +12°C° 0 mm 2 mps 737 mmHg 78%
22:00 +10°C° 0 mm 2 mps 737 mmHg 78%
23:00 +10°C° 0 mm 1 mps 737 mmHg 81%

14 May, Friday

Time Temperature Precipitation Wind Pressure Humidity
00:00 +10°C° 0 mm 1 mps 737 mmHg 83%
01:00 +9°C° 0 mm 1 mps 737 mmHg 86%
02:00 +9°C° 0 mm 1 mps 737 mmHg 86%
03:00 +9°C° 0 mm 1 mps 737 mmHg 87%
04:00 +7°C° 0 mm 0 mps 737 mmHg 88%
05:00 +10°C° 0 mm 1 mps 738 mmHg 83%
06:00 +11°C° 0 mm 1 mps 738 mmHg 78%
07:00 +13°C° 0 mm 1 mps 738 mmHg 74%
08:00 +14°C° 0.1 mm 1 mps 738 mmHg 68%
09:00 +16°C° 0.1 mm 1 mps 738 mmHg 62%
10:00 +18°C° 0.1 mm 1 mps 738 mmHg 56%
11:00 +17°C° 0.2 mm 2 mps 738 mmHg 56%
12:00 +17°C° 0.2 mm 2 mps 738 mmHg 56%
13:00 +18°C° 0.2 mm 2 mps 738 mmHg 57%
14:00 +17°C° 0.2 mm 2 mps 738 mmHg 60%
15:00 +17°C° 0.2 mm 2 mps 738 mmHg 63%
16:00 +17°C° 0.2 mm 2 mps 739 mmHg 66%
17:00 +16°C° 0.3 mm 2 mps 739 mmHg 71%
18:00 +15°C° 0.3 mm 2 mps 739 mmHg 77%
19:00 +13°C° 0.3 mm 3 mps 739 mmHg 83%
20:00 +12°C° 0.2 mm 3 mps 739 mmHg 87%
21:00 +11°C° 0.2 mm 3 mps 740 mmHg 91%
22:00 +11°C° 0.2 mm 4 mps 740 mmHg 94%
23:00 +10°C° 0 mm 3 mps 740 mmHg 95%
Show more